{"data":{"norad_id":46493,"epoch":"2026-09-20T04:12:41.174784Z","epoch_age_seconds":101675,"freshness":"FRESH","line1":"1 46493U 20068H   26263.17547656  .00008821  00000+0  22861-3 0  9992","line2":"2 46493  97.8752 279.3970 0007020 315.7418  44.3264 15.39275032330377","mean_motion":15.39275032,"eccentricity":0.000702,"inclination_deg":97.8752,"raan_deg":279.397,"arg_perigee_deg":315.7418,"mean_anomaly_deg":44.3264,"bstar":0.00022861,"rev_number":33037,"period_min":93.550533209714,"perigee_km":443.45974790878,"apogee_km":453.04399788633,"semimajor_km":6826.3888728976,"source":"CELESTRAK","updated_at":"2026-09-20T09:00:14.760391Z"}}